Tracking 29594 objects as of 20-Sep-2024
HD Live streaming from Space Station
objects crossing your sky now

FENGYUN 1C DEB

Track FENGYUN 1C DEB now!
10-day predictions


NORAD ID: 30684
Int'l Code: 1999-025AQS
Perigee: 845.5 km
Apogee: 1,200.0 km
Inclination: 99.6 °
Period: 105.5 minutes
Semi major axis: 7393 km
RCS: 0.036 m2 (small)
Launch date: May 10, 1999
Source: People's Republic of China (PRC)
Launch site: Taiyaun Space Center, China (TSC)

Note: This is SATELLITE DEBRIS
Your satellite tracking list
Your tracking list is empty




NASA's NSSDC Master Catalog

Two Line Element Set (TLE):
1 30684U 99025AQS 24263.56750542  .00001819  00000-0  18759-2 0  9998
2 30684  99.5607 305.1338 0239690 343.9287  15.4347 13.65546099875953
Source of the keplerian elements: AFSPC